Tracking 17782 objects as of 26-July-2016
HD Live streaming from Space Station
objects crossing your sky now

SWISSCUBE

Track SWISSCUBE now!
10-day predictions
SWISSCUBE is classified as:


NORAD ID: 35932
Int'l Code: 2009-051B
Perigee: 708.1 km
Apogee: 719.4 km
Inclination: 98.5 °
Period: 98.9 minutes
Semi major axis: 7084 km
RCS: 0.05 m2 (small)
Launch date: September 23, 2009
Source: (SWTZ)
Launch site: SIRHARIKOTA (SRI)
Uplink (MHz):
Downlink (MHz): 437.505
Beacon (MHz): 437.505
Mode: 1200bps BFSK CW
Call sign: HB9EG1
Status: Active


SWISSCUBE is Switzerland's first satellite and will try to detect a phenomenon known as airglow using an off-the-shelf sensor.
Your satellite tracking list
Your tracking list is empty





NASA's NSSDC Master Catalog

Two Line Element Set (TLE):
1 35932U 09051B   16207.07510128  .00000174  00000-0  50449-4 0  9995
2 35932  98.4530 334.6207 0008013 167.9326 192.2064 14.55843321362724
Source of the keplerian elements: AFSPC

N2YO: 704